OKEAN-0
1 25860U 99039A   06004.60636413  .00000173  00000-0  33972-4 0 06334
2 25860 097.7427 026.4889 0000586 036.1864 323.9374 14.73329029347660
NOAA-16
1 26536U 00055A   06005.13255769 -.00000053  00000-0 -41043-5 0  6962
2 26536 099.0451 330.0336 0010021 216.2102 143.8389 14.12304481272564
NOAA-17
1 27453U 02032A   06005.13023687  .00000052  00000-0  41585-4 0  7171
2 27453 098.6415 080.3834 0011866 185.2538 174.8493 14.23738852183579
NOAA-18
1 28654U 05018A   06005.10468130  .00000362  00000-0  22567-3 0  3083
2 28654 098.7710 312.0291 0014055 326.4223 033.6038 14.10920133 32387
HUBBLE
1 20580U 90037B   06004.41685159  .00000758  00000-0  46583-4 0 05180
2 20580 028.4685 037.4010 0003829 244.5639 115.4554 14.99940234660484
UARS
1 21701U 91063B   06004.63027310  .00007674  00000-0  15680-3 0 06558
2 21701 056.9799 076.3344 0103373 254.9516 103.9845 15.41686471784062
PO-34
1 25520U 98064B   06004.76085307  .00001021  00000-0  41114-4 0 03776
2 25520 028.4569 044.3443 0005210 258.9039 101.0935 15.16576911397219
ISS
1 25544U 98067A   06006.06972222  .00014858  00000-0  10687-3 0   983
2 25544 051.6444 300.9918 0011042 121.5779 063.1360 15.73801966407619
OO-38
1 26063U 00004C   06005.78169947  .00000063  00000-0  41734-4 0  5159
2 26063 100.1920 267.5873 0036863 204.2322 155.7144 14.35749297311363
NO-45
1 26932U 01043D   06005.62765167 -.00000203  00000-0 -46987-4 0  2102
2 26932 067.0566 066.0698 0005549 291.5067 068.5404 14.29511306222737
UWE-1
1 28892U 05043C   06005.76488143  .00000315  00000-0  76361-4 0  2543
2 28892 098.1814 266.4593 0017029 320.7256 039.2715 14.59288229 10289
XI-V
1 28895U 05043F   06005.83073923  .00000306  00000-0  74385-4 0  2364
2 28895 098.1841 266.5482 0017533 320.4520 039.5404 14.59344133 10174
NCUBE2
1 28897U 05043H   06003.42559082  .00000274  00000-0  67491-4 0   108
2 28897 098.1785 264.1802 0017456 331.0099 029.0106 14.59496291  2094
